Radiation Dose at Monitoring Post of Fukushima Daini Nuclear Power Station
Date,Time,MP-1(microSv/h),MP-2(microSv/h),MP-3(microSv/h),MP-4(microSv/h),MP-5(microSv/h),MP-6(microSv/h),MP-7(microSv/h),Wind Direction,Wind Velocity(m/s),Rain
2023/08/14,00:00,0.145,0.133,0.216,0.206,0.206,0.120,0.074,north,1.0,Yes
2023/08/14,00:10,0.145,0.134,0.214,0.205,0.210,0.119,0.077,north,1.2,Yes
2023/08/14,00:20,0.145,0.135,0.213,0.202,0.209,0.119,0.075,east-northeast,1.3,Yes
2023/08/14,00:30,0.146,0.135,0.212,0.202,0.207,0.118,0.076,north-northeast,1.4,Yes
2023/08/14,00:40,0.145,0.133,0.212,0.202,0.205,0.119,0.075,north-northeast,3.8,Yes
2023/08/14,00:50,0.143,0.131,0.211,0.201,0.204,0.119,0.076,north-northeast,8.1,Yes
2023/08/14,01:00,0.143,0.134,0.203,0.190,0.204,0.117,0.075,north-northwest,3.1,Yes
2023/08/14,01:10,0.145,0.133,0.205,0.194,0.205,0.117,0.075,east-northeast,1.8,Yes
2023/08/14,01:20,0.146,0.134,0.208,0.198,0.204,0.117,0.075,northeast,4.0,Yes
2023/08/14,01:30,0.141,0.132,0.210,0.197,0.200,0.116,0.075,northwest,1.6,Yes
2023/08/14,01:40,0.136,0.133,0.209,0.197,0.205,0.116,0.076,north-northeast,2.6,Yes
2023/08/14,01:50,0.129,0.132,0.204,0.193,0.204,0.114,0.075,-,CALM,Yes
2023/08/14,02:00,0.135,0.132,0.198,0.190,0.202,0.114,0.075,east,2.8,Yes
2023/08/14,02:10,0.137,0.131,0.206,0.197,0.204,0.116,0.076,east-northeast,6.0,Yes
2023/08/14,02:20,0.137,0.132,0.207,0.197,0.202,0.115,0.076,east,2.2,Yes
2023/08/14,02:30,0.137,0.132,0.207,0.198,0.206,0.116,0.075,east,3.5,Yes
2023/08/14,02:40,0.141,0.131,0.208,0.197,0.206,0.115,0.075,east-southeast,2.4,Yes
2023/08/14,02:50,0.141,0.130,0.211,0.198,0.204,0.115,0.075,east,2.8,Yes
2023/08/14,03:00,0.136,0.130,0.206,0.197,0.201,0.114,0.075,east-northeast,1.3,Yes
2023/08/14,03:10,0.135,0.130,0.202,0.193,0.205,0.114,0.075,east-northeast,2.9,Yes
2023/08/14,03:20,0.138,0.130,0.204,0.195,0.206,0.115,0.075,east,2.7,Yes
2023/08/14,03:30,0.141,0.130,0.209,0.198,0.205,0.115,0.075,-,CALM,Yes
2023/08/14,03:40,0.139,0.131,0.210,0.200,0.204,0.115,0.075,east-southeast,1.9,Yes
2023/08/14,03:50,0.139,0.131,0.207,0.200,0.205,0.115,0.075,east,2.8,Yes
2023/08/14,04:00,0.138,0.131,0.207,0.197,0.207,0.116,0.074,east,3.8,No
2023/08/14,04:10,0.141,0.130,0.209,0.197,0.204,0.114,0.074,east,3.6,No
2023/08/14,04:20,0.141,0.128,0.211,0.199,0.204,0.114,0.074,east-southeast,3.6,No
2023/08/14,04:30,0.139,0.131,0.209,0.200,0.204,0.115,0.075,east-southeast,1.9,No
2023/08/14,04:40,0.139,0.131,0.208,0.198,0.206,0.115,0.074,east-southeast,1.4,No
2023/08/14,04:50,0.141,0.129,0.208,0.198,0.207,0.115,0.074,east,1.9,No
2023/08/14,05:00,0.142,0.130,0.211,0.198,0.205,0.114,0.074,east,2.7,No
2023/08/14,05:10,0.141,0.130,0.211,0.200,0.202,0.114,0.074,east,1.6,No
2023/08/14,05:20,0.140,0.131,0.209,0.199,0.204,0.115,0.074,east,1.9,Yes
2023/08/14,05:30,0.140,0.130,0.208,0.199,0.207,0.114,0.074,east,2.0,Yes
2023/08/14,05:40,0.142,0.129,0.208,0.197,0.206,0.115,0.073,east-northeast,2.1,No
2023/08/14,05:50,0.142,0.129,0.211,0.199,0.205,0.114,0.074,east-northeast,1.9,No
2023/08/14,06:00,0.141,0.129,0.209,0.201,0.204,0.115,0.073,northeast,1.7,No
2023/08/14,06:10,0.141,0.131,0.208,0.199,0.203,0.115,0.074,north-northeast,2.1,No
2023/08/14,06:20,0.139,0.131,0.208,0.198,0.206,0.115,0.074,northeast,2.0,No
2023/08/14,06:30,0.142,0.130,0.208,0.198,0.206,0.114,0.073,east-northeast,1.5,No
2023/08/14,06:40,0.142,0.130,0.210,0.197,0.205,0.114,0.073,-,CALM,No
2023/08/14,06:50,0.142,0.130,0.211,0.200,0.204,0.115,0.073,north-northeast,1.7,No
2023/08/14,07:00,0.141,0.128,0.210,0.200,0.204,0.116,0.074,-,CALM,No
2023/08/14,07:10,0.140,0.129,0.210,0.201,0.204,0.115,0.074,north-northeast,3.9,No
2023/08/14,07:20,0.140,0.129,0.208,0.199,0.204,0.115,0.074,northeast,1.3,No
2023/08/14,07:30,0.140,0.130,0.208,0.199,0.202,0.115,0.073,northeast,3.2,Yes
2023/08/14,07:40,0.141,0.131,0.208,0.197,0.204,0.116,0.073,east-northeast,3.2,Yes
2023/08/14,07:50,0.143,0.131,0.208,0.198,0.207,0.114,0.074,east-northeast,3.7,Yes
2023/08/14,08:00,0.142,0.129,0.208,0.197,0.207,0.114,0.073,east-northeast,3.6,Yes
2023/08/14,08:10,0.141,0.129,0.209,0.197,0.206,0.114,0.073,east-northeast,4.4,Yes
2023/08/14,08:20,0.138,0.127,0.208,0.199,0.203,0.114,0.074,east-northeast,2.2,Yes
2023/08/14,08:30,0.137,0.129,0.208,0.200,0.202,0.114,0.075,east,2.6,Yes
2023/08/14,08:40,0.139,0.129,0.208,0.198,0.203,0.115,0.074,east-southeast,2.1,No
2023/08/14,08:50,0.140,0.130,0.206,0.199,0.204,0.115,0.074,east-southeast,1.7,No
2023/08/14,09:00,0.139,0.128,0.206,0.197,0.208,0.115,0.074,east-southeast,1.3,No
2023/08/14,09:10,0.139,0.129,0.208,0.198,0.206,0.115,0.074,east-southeast,1.2,No
2023/08/14,09:20,0.139,0.129,0.207,0.198,0.205,0.115,0.074,east,0.8,No
2023/08/14,09:30,0.139,0.129,0.207,0.198,0.206,0.114,0.073,east,1.5,Yes
2023/08/14,09:40,0.139,0.129,0.208,0.198,0.204,0.116,0.073,east,2.2,Yes
2023/08/14,09:50,0.140,0.129,0.207,0.197,0.205,0.115,0.073,east,1.2,Yes
2023/08/14,10:00,0.142,0.129,0.206,0.198,0.204,0.115,0.073,east-southeast,1.5,Yes
2023/08/14,10:10,0.139,0.129,0.209,0.197,0.203,0.115,0.074,east,1.6,No
2023/08/14,10:20,0.139,0.129,0.208,0.198,0.204,0.115,0.074,east,1.2,Yes
2023/08/14,10:30,0.139,0.129,0.208,0.199,0.205,0.115,0.074,east,1.4,No
2023/08/14,10:40,0.140,0.129,0.208,0.199,0.206,0.116,0.074,east-northeast,1.9,No
2023/08/14,10:50,0.141,0.130,0.208,0.199,0.205,0.115,0.074,southwest,0.9,No
2023/08/14,11:00,0.141,0.131,0.210,0.201,0.206,0.115,0.074,east,2.6,No
2023/08/14,11:10,0.142,0.131,0.210,0.200,0.208,0.116,0.074,east,3.8,No
2023/08/14,11:20,0.143,0.130,0.210,0.201,0.206,0.115,0.074,east,3.0,No
2023/08/14,11:30,0.142,0.131,0.211,0.201,0.207,0.115,0.074,east,3.2,No
2023/08/14,11:40,0.143,0.131,0.211,0.201,0.206,0.116,0.075,east-southeast,2.2,No
2023/08/14,11:50,0.142,0.131,0.210,0.201,0.206,0.116,0.074,east,2.6,Yes
2023/08/14,12:00,0.143,0.131,0.210,0.201,0.208,0.116,0.074,east-southeast,2.4,Yes
2023/08/14,12:10,0.143,0.131,0.211,0.199,0.206,0.116,0.075,southeast,1.8,No
2023/08/14,12:20,0.143,0.131,0.210,0.201,0.207,0.116,0.075,east-southeast,2.6,No
2023/08/14,12:30,0.142,0.131,0.211,0.200,0.208,0.117,0.074,southeast,1.6,No
2023/08/14,12:40,0.142,0.131,0.210,0.200,0.207,0.116,0.074,east,1.2,No
2023/08/14,12:50,0.142,0.131,0.211,0.201,0.208,0.116,0.074,east-southeast,2.0,No
2023/08/14,13:00,0.142,0.131,0.212,0.201,0.207,0.116,0.074,east-southeast,1.8,No
2023/08/14,13:10,0.143,0.131,0.211,0.200,0.207,0.116,0.075,east-southeast,2.2,No
2023/08/14,13:20,0.143,0.131,0.211,0.202,0.208,0.117,0.075,east-southeast,2.7,No
2023/08/14,13:30,0.143,0.131,0.211,0.202,0.207,0.116,0.074,east-southeast,2.7,No
2023/08/14,13:40,0.143,0.131,0.211,0.203,0.206,0.115,0.074,east-southeast,3.0,No
2023/08/14,13:50,0.142,0.130,0.211,0.201,0.208,0.116,0.074,east-southeast,2.8,No
2023/08/14,14:00,0.143,0.131,0.212,0.202,0.207,0.115,0.074,east-southeast,2.9,No
2023/08/14,14:10,0.144,0.131,0.212,0.201,0.207,0.116,0.075,east-southeast,2.6,No
2023/08/14,14:20,0.143,0.131,0.211,0.202,0.208,0.116,0.074,southeast,1.3,No
2023/08/14,14:30,0.144,0.131,0.212,0.203,0.207,0.117,0.074,south-southeast,1.9,No
2023/08/14,14:40,0.143,0.132,0.211,0.202,0.208,0.116,0.074,southeast,2.6,No
2023/08/14,14:50,0.144,0.131,0.211,0.201,0.209,0.116,0.074,southeast,3.3,No
2023/08/14,15:00,0.144,0.132,0.212,0.202,0.208,0.117,0.074,southeast,4.7,No
2023/08/14,15:10,0.143,0.132,0.211,0.200,0.207,0.117,0.074,south-southeast,4.5,No
2023/08/14,15:20,0.144,0.132,0.212,0.202,0.208,0.116,0.075,-,CALM,No
2023/08/14,15:30,0.143,0.131,0.211,0.201,0.208,0.117,0.074,south-southeast,3.5,No
2023/08/14,15:40,0.143,0.131,0.210,0.201,0.208,0.117,0.075,south-southeast,3.0,No
2023/08/14,15:50,0.143,0.131,0.211,0.201,0.208,0.116,0.075,south,3.7,No
2023/08/14,16:00,0.143,0.130,0.211,0.201,0.207,0.116,0.074,south,3.0,No
2023/08/14,16:10,0.142,0.131,0.211,0.200,0.207,0.117,0.074,south,2.8,No
2023/08/14,16:20,0.143,0.131,0.211,0.202,0.207,0.116,0.075,-,CALM,No
2023/08/14,16:30,0.143,0.131,0.211,0.202,0.207,0.116,0.074,-,CALM,No
2023/08/14,16:40,0.143,0.131,0.210,0.200,0.208,0.117,0.073,-,CALM,No
2023/08/14,16:50,0.144,0.131,0.211,0.201,0.208,0.116,0.074,south,0.9,No
2023/08/14,17:00,0.143,0.130,0.210,0.200,0.206,0.116,0.074,south-southeast,2.5,No
2023/08/14,17:10,0.143,0.130,0.210,0.201,0.206,0.116,0.074,south-southeast,3.1,No
2023/08/14,17:20,0.142,0.130,0.211,0.199,0.207,0.116,0.073,-,CALM,No
2023/08/14,17:30,0.143,0.130,0.210,0.200,0.206,0.116,0.074,-,CALM,No
2023/08/14,17:40,0.142,0.131,0.214,0.202,0.206,0.116,0.075,southeast,0.6,No
2023/08/14,17:50,0.142,0.129,0.215,0.204,0.206,0.115,0.074,south-southeast,1.5,No
2023/08/14,18:00,0.143,0.131,0.213,0.202,0.206,0.116,0.075,south-southeast,1.7,No
2023/08/14,18:10,0.143,0.130,0.212,0.202,0.206,0.117,0.073,-,CALM,No
2023/08/14,18:20,0.143,0.131,0.211,0.201,0.205,0.117,0.074,-,CALM,No
2023/08/14,18:30,0.144,0.133,0.211,0.200,0.205,0.117,0.074,-,CALM,No
2023/08/14,18:40,0.145,0.132,0.211,0.200,0.208,0.117,0.073,east-southeast,1.0,No
2023/08/14,18:50,0.144,0.131,0.215,0.202,0.210,0.116,0.075,-,CALM,No
2023/08/14,19:00,0.143,0.131,0.214,0.203,0.209,0.117,0.075,southeast,1.0,No
2023/08/14,19:10,0.143,0.130,0.212,0.203,0.209,0.116,0.075,south-southeast,2.2,No
2023/08/14,19:20,0.143,0.131,0.211,0.201,0.207,0.117,0.074,south-southeast,1.5,Yes
2023/08/14,19:30,0.142,0.132,0.211,0.201,0.206,0.118,0.074,south-southeast,2.0,No
2023/08/14,19:40,0.144,0.132,0.212,0.199,0.205,0.117,0.074,south-southeast,2.6,Yes
2023/08/14,19:50,0.146,0.131,0.215,0.205,0.208,0.115,0.074,south-southeast,2.7,Yes
2023/08/14,20:00,0.144,0.131,0.212,0.204,0.211,0.116,0.075,southeast,4.4,No
2023/08/14,20:10,0.144,0.130,0.212,0.202,0.208,0.116,0.074,southeast,4.9,No
2023/08/14,20:20,0.143,0.132,0.211,0.200,0.207,0.117,0.074,southeast,3.6,No
2023/08/14,20:30,0.143,0.132,0.213,0.200,0.206,0.117,0.074,southeast,4.0,No
2023/08/14,20:40,0.145,0.132,0.215,0.203,0.207,0.117,0.074,southeast,3.0,No
2023/08/14,20:50,0.143,0.130,0.213,0.203,0.209,0.117,0.075,southeast,2.3,No
2023/08/14,21:00,0.143,0.130,0.212,0.201,0.208,0.116,0.075,east-southeast,3.7,No
2023/08/14,21:10,0.143,0.133,0.212,0.201,0.208,0.116,0.074,southeast,4.4,No
2023/08/14,21:20,0.143,0.132,0.211,0.200,0.206,0.118,0.074,southeast,4.4,No
2023/08/14,21:30,0.144,0.132,0.214,0.201,0.206,0.117,0.074,southeast,4.7,No
2023/08/14,21:40,0.146,0.130,0.214,0.204,0.207,0.116,0.075,south-southeast,4.7,Yes
2023/08/14,21:50,0.144,0.130,0.211,0.202,0.210,0.117,0.074,southeast,4.6,Yes
2023/08/14,22:00,0.143,0.131,0.211,0.200,0.208,0.116,0.075,southeast,4.1,No
2023/08/14,22:10,0.143,0.132,0.212,0.200,0.208,0.117,0.074,south-southeast,4.1,No
2023/08/14,22:20,0.144,0.131,0.213,0.201,0.206,0.117,0.074,south-southeast,4.3,No
2023/08/14,22:30,0.144,0.131,0.214,0.203,0.206,0.116,0.074,south-southeast,4.1,No
2023/08/14,22:40,0.143,0.132,0.211,0.202,0.209,0.116,0.075,south-southeast,3.1,No
2023/08/14,22:50,0.143,0.132,0.211,0.202,0.209,0.116,0.075,south-southeast,3.2,No
2023/08/14,23:00,0.143,0.132,0.214,0.200,0.207,0.117,0.074,south-southeast,3.8,Yes
2023/08/14,23:10,0.145,0.130,0.213,0.201,0.205,0.118,0.074,southeast,3.5,No
2023/08/14,23:20,0.144,0.131,0.212,0.204,0.206,0.118,0.074,south-southeast,3.1,Yes
2023/08/14,23:30,0.143,0.131,0.210,0.203,0.209,0.116,0.075,south-southeast,3.4,Yes
2023/08/14,23:40,0.142,0.132,0.212,0.200,0.209,0.117,0.076,south-southeast,3.1,Yes
2023/08/14,23:50,0.143,0.132,0.215,0.200,0.208,0.116,0.074,southeast,3.8,No
